IV3CGM-1 Weather Reports


time (UTC)temp
C
wind
direction
speed
KPH
gust
KPH
rain 1hr
cm
rain 24hr
cm
rain mn
cm
humidity
%
barometer
mb
20260502231910 12 228 8.0 9.7 0.00 0.00 0.00 56
20260502230934 12 257 6.4 8.0 0.00 0.00 0.00 56
20260502225945 12 252 3.2 8.0 0.00 0.00 0.00 55
20260502224955 12 210 3.2 3.2 0.00 0.00 0.00 56
20260502223947 12 210 3.2 6.4 0.00 0.00 0.00 56
20260502222844 12 217 0.0 3.2 0.00 0.00 0.00 56
20260502221843 12 217 3.2 8.0 0.00 0.00 0.00 55
20260502220835 12 228 4.8 11.3 0.00 0.00 0.00 54
20260502215808 12 270 9.7 9.7 0.00 0.00 0.00 55
20260502214819 11 321 8.0 8.0 0.00 0.00 0.00 57
20260502213755 11 336 4.8 11.3 0.00 0.00 0.00 58
20260502212832 12 42 8.0 11.3 0.00 0.00 0.00 59
20260502211818 12 24 6.4 9.7 0.00 0.00 0.00 56
20260502210843 12 44 6.4 6.4 0.00 0.00 0.00 54
20260502205858 12 24 4.8 9.7 0.00 0.00 0.00 54
20260502204819 12 41 3.2 9.7 0.00 0.00 0.00 54
20260502203755 12 55 9.7 9.7 0.00 0.00 0.00 53
20260502202754 12 326 4.8 6.4 0.00 0.00 0.00 53
20260502201832 12 312 6.4 9.7 0.00 0.00 0.00 53
20260502200754 12 300 9.7 9.7 0.00 0.00 0.00 54
20260502195730 12 293 8.0 9.7 0.00 0.00 0.00 55
20260502194657 12 307 8.0 12.9 0.00 0.00 0.00 58
20260502193533 12 300 11.3 14.5 0.00 0.00 0.00 58
20260502192532 12 297 14.5 14.5 0.00 0.00 0.00 57
20260502191556 12 312 14.5 14.5 0.00 0.00 0.00 56
20260502190554 12 294 11.3 11.3 0.00 0.00 0.00 55
20260502185533 12 304 3.2 6.4 0.00 0.00 0.00 55
20260502184546 12 283 4.8 8.0 0.00 0.00 0.00 53
20260502183507 12 222 6.4 8.0 0.00 0.00 0.00 55
20260502182531 12 228 8.0 11.3 0.00 0.00 0.00 58
20260502181522 12 204 8.0 11.3 0.00 0.00 0.00 59
20260502180555 12 156 9.7 17.7 0.00 0.00 0.00 54
20260502163432 14 132 11.3 19.3 0.00 0.00 0.00 49
20260502162509 14 180 9.7 24.1 0.00 0.00 0.00 49
20260502161508 14 150 14.5 24.1 0.00 0.00 0.00 48
20260502160554 14 156 12.9 20.9 0.00 0.00 0.00 48
20260502151609 15 193 8.0 24.1 0.00 0.00 0.00 47
20260502150557 15 132 11.3 20.9 0.00 0.00 0.00 46
20260502130733 15 162 9.7 24.1 0.00 0.00 0.00 45
20260502122845 14 120 14.5 25.7 0.00 0.00 0.00 47
20260502121818 15 89 14.5 20.9 0.00 0.00 0.00 46
20260502120809 13 150 17.7 25.7 0.00 0.00 0.00 47
20260502115754 14 253 12.9 20.9 0.00 0.00 0.00 47
20260502114821 14 127 8.0 25.7 0.00 0.00 0.00 45
20260502113819 15 127 22.5 25.7 0.00 0.00 0.00 43
20260502112831 15 180 9.7 20.9 0.00 0.00 0.00 44
20260502111819 15 143 12.9 20.9 0.00 0.00 0.00 45
20260502110821 13 143 14.5 25.7 0.00 0.00 0.00 45
20260502105809 13 143 17.7 22.5 0.00 0.00 0.00 44
20260502104844 14 120 11.3 22.5 0.00 0.00 0.00 45
20260502103832 13 132 9.7 20.9 0.00 0.00 0.00 46
20260502102908 13 132 14.5 25.7 0.00 0.00 0.00 47
20260502101919 13 143 19.3 22.5 0.00 0.00 0.00 46
20260502100929 13 108 9.7 24.1 0.00 0.00 0.00 46
20260502091054 13 162 12.9 19.3 0.00 0.00 0.00 46
20260502090129 12 132 11.3 14.5 0.00 0.00 0.00 46
20260502080107 13 210 8.0 9.7 0.00 0.00 0.00 46
20260502071018 12 103 8.0 11.3 0.00 0.00 0.00 47
20260502070056 12 114 6.4 9.7 0.00 0.00 0.00 50
20260502065130 12 156 3.2 8.0 0.00 0.00 0.00 47
20260502064118 12 100 3.2 8.0 0.00 0.00 0.00 49
20260502063130 11 138 4.8 9.7 0.00 0.00 0.00 50
20260502062127 12 132 8.0 9.7 0.00 0.00 0.00 47
20260502061119 12 60 6.4 8.0 0.00 0.00 0.00 45
20260502060017 11 138 8.0 8.0 0.00 0.00 0.00 47
20260502055016 11 143 8.0 8.0 0.00 0.00 0.00 47
20260502054056 11 138 3.2 9.7 0.00 0.00 0.00 48
20260502053107 11 103 6.4 9.7 0.00 0.00 0.00 48
20260502052144 11 138 4.8 4.8 0.00 0.00 0.00 44
20260502051039 10 120 3.2 6.4 0.00 0.00 0.00 49
20260502050105 10 132 6.4 6.4 0.00 0.00 0.00 48
20260502045056 9 228 3.2 3.2 0.00 0.00 0.00 50
20260502044043 8 228 3.2 4.8 0.00 0.00 0.00 49
20260502043041 8 252 3.2 11.3 0.00 0.00 0.00 50
20260502042106 8 264 11.3 11.3 0.00 0.00 0.00 53
20260502041129 8 246 3.2 4.8 0.00 0.00 0.00 50
20260502040207 8 246 0.0 4.8 0.00 0.00 0.00 50
20260502035217 8 246 0.0 6.4 0.00 0.00 0.00 50
20260502034152 7 222 0.0 11.3 0.00 0.00 0.00 52
20260502033129 7 228 9.7 12.9 0.00 0.00 0.00 55
20260502032154 7 222 8.0 8.0 0.00 0.00 0.00 52
20260502031152 7 222 6.4 9.7 0.00 0.00 0.00 52
20260502030217 8 222 9.7 12.9 0.00 0.00 0.00 50
20260502025255 9 264 9.7 12.9 0.00 0.00 0.00 50
20260502024330 8 270 9.7 11.3 0.00 0.00 0.00 49
20260502023306 8 270 4.8 6.4 0.00 0.00 0.00 50
20260502022342 8 264 6.4 9.7 0.00 0.00 0.00 47
20260502021330 9 264 8.0 12.9 0.00 0.00 0.00 47
20260502020330 9 276 11.3 12.9 0.00 0.00 0.00 47
20260502015408 8 240 3.2 4.8 0.00 0.00 0.00 48
20260502014441 8 228 4.8 6.4 0.00 0.00 0.00 49
20260502013455 8 210 4.8 4.8 0.00 0.00 0.00 49
20260502012417 8 228 0.0 3.2 0.00 0.00 0.00 47
20260502011503 8 228 3.2 6.4 0.00 0.00 0.00 46
20260502010529 8 217 6.4 6.4 0.00 0.00 0.00 47
20260502005529 8 210 4.8 4.8 0.00 0.00 0.00 47
20260502004506 8 162 3.2 6.4 0.00 0.00 0.00 48
20260502003530 8 132 6.4 6.4 0.00 0.00 0.00 47
20260502002507 8 198 4.8 6.4 0.00 0.00 0.00 47
20260502001503 9 228 0.0 3.2 0.00 0.00 0.00 46
20260502000439 9 228 3.2 4.8 0.00 0.00 0.00 45
20260501235440 9 228 3.2 3.2 0.00 0.00 0.00 45
20260501234504 9 228 3.2 3.2 0.00 0.00 0.00 46
20260501233541 9 228 3.2 3.2 0.00 0.00 0.00 45
20260501232617 9 210 0.0 6.4 0.00 0.00 0.00 45